OE-11272 Weather Reports


time (UTC)temp
F
wind
direction
speed
knots
gust
knots
rain 1hr
in
rain 24hr
in
rain mn
in
humidity
%
barometer
mb
20260903100527 72 307 1.7 4.3 0.00 0.04 0.00 63 1020.3
20260903095527 71 346 1.7 3.5 0.00 0.04 0.00 63 1020.6
20260903094139 71 301 0.9 3.5 0.00 0.04 0.00 66 1020.6
20260903093527 69 292 0.9 3.5 0.00 0.04 0.00 65 1021.1
20260903091140 69 324 1.7 5.2 0.00 0.04 0.00 72 1021.5
20260903090527 69 345 1.7 5.2 0.00 0.04 0.00 70 1021.5
20260903085526 68 333 1.7 5.2 0.00 0.04 0.00 73 1021.7
20260903084139 67 310 1.7 5.2 0.00 0.04 0.00 76 1021.9
20260903083527 67 302 2.6 5.2 0.00 0.04 0.00 76 1022.1
20260903082527 66 315 1.7 5.2 0.00 0.04 0.00 78 1022.1
20260903081140 66 323 2.6 5.2 0.00 0.04 0.00 76 1022.1
20260903080527 66 330 2.6 4.3 0.00 0.04 0.00 80 1022.2
20260903075527 65 336 3.5 5.2 0.00 0.04 0.00 83 1022.3
20260903074140 64 319 4.3 6.1 0.00 0.04 0.00 83 1022.5
20260903073526 64 319 3.5 6.1 0.00 0.04 0.00 83 1022.7
20260903072526 63 298 1.7 3.5 0.00 0.04 0.00 86 1022.7
20260903071140 63 343 1.7 4.3 0.00 0.04 0.00 88 1022.9
20260903070527 63 6 1.7 3.5 0.00 0.04 0.00 89 1023.0
20260903065527 62 335 1.7 3.5 0.00 0.04 0.00 89 1023.1
20260903064139 61 340 1.7 3.5 0.00 0.04 0.00 93 1023.1
20260903063526 61 331 2.6 3.5 0.00 0.04 0.00 93 1023.1
20260903062527 60 319 1.7 3.5 0.00 0.04 0.00 96 1023.1
20260903061140 59 339 1.7 3.5 0.00 0.04 0.00 99 1023.2
20260903060527 58 347 1.7 3.5 0.00 0.04 0.00 100 1023.3
20260903055526 58 330 1.7 3.5 0.00 0.04 0.00 100 1023.3
20260903054139 57 279 1.7 3.5 0.00 0.04 0.00 100 1023.3
20260903053526 57 273 0.9 2.6 0.00 0.04 0.00 100 1023.4
20260903052527 56 341 0.9 1.7 0.00 0.04 0.00 100 1023.5
20260903051140 56 269 1.7 2.6 0.00 0.04 0.00 100 1023.2
20260903050526 56 353 0.9 2.6 0.00 0.04 0.00 100 1023.1
20260903045527 56 338 1.7 2.6 0.00 0.04 0.00 100 1023.1
20260903044139 56 261 1.7 2.6 0.00 0.04 0.00 100 1023.1
20260903043526 56 295 1.7 2.6 0.00 0.04 0.00 100 1023.1
20260903042527 56 327 0.9 2.6 0.00 0.04 0.00 100 1023.1
20260903041139 57 287 0.9 2.6 0.00 0.04 0.00 100 1022.9
20260903040527 57 289 1.7 3.5 0.00 0.04 0.00 100 1023.0
20260903035527 57 330 1.7 3.5 0.00 0.04 0.00 100 1022.9
20260903034526 58 276 1.7 3.5 0.00 0.04 0.00 100 1022.9
20260903033527 57 288 0.9 3.5 0.00 0.04 0.00 100 1022.9
20260903032527 58 307 1.7 4.3 0.00 0.04 0.00 100 1022.9
20260903031140 58 285 0.9 2.6 0.00 0.04 0.00 100 1022.4
20260903030527 58 295 1.7 2.6 0.00 0.04 0.00 100 1022.5
20260903025527 59 297 1.7 2.6 0.00 0.04 0.00 100 1022.7
20260903024527 59 337 0.9 1.7 0.00 0.04 0.00 100 1022.4
20260903023527 59 336 1.7 2.6 0.00 0.04 0.00 99 1022.6
20260903022527 59 305 0.9 2.6 0.00 0.04 0.00 99 1022.6
20260903021139 59 238 0.9 3.5 0.00 0.04 0.00 99 1022.3
20260903020527 60 284 1.7 3.5 0.00 0.04 0.00 99 1022.5
20260903015527 60 327 0.9 2.6 0.00 0.04 0.00 98 1022.5
20260903014139 60 278 1.7 2.6 0.00 0.04 0.00 98 1022.6
20260903013526 60 251 1.7 3.5 0.00 0.04 0.00 98 1022.6
20260903012526 60 46 0.9 4.3 0.00 0.04 0.00 97 1022.6
20260903011140 60 341 0.9 3.5 0.00 0.04 0.00 98 1022.5
20260903010527 60 243 0.9 3.5 0.00 0.04 0.00 98 1022.5
20260903005527 60 334 0.9 2.6 0.00 0.04 0.00 98 1022.3
20260903004140 60 4 1.7 3.5 0.00 0.04 0.00 97 1022.2
20260903003527 60 303 1.7 2.6 0.00 0.04 0.00 96 1022.3
20260903002527 60 235 0.9 2.6 0.00 0.04 0.00 96 1022.1
20260903001539 61 244 1.7 5.2 0.00 0.04 0.00 94 1022.2
20260903000527 61 265 1.7 4.3 0.00 0.04 0.00 94 1022.2
20260902235526 60 338 1.7 4.3 0.00 0.04 0.00 97 1022.1
20260902234140 60 350 2.6 4.3 0.00 0.04 0.00 98 1022.1
20260902233526 60 313 2.6 4.3 0.00 0.04 0.00 98 1022.1
20260902232526 61 286 2.6 4.3 0.00 0.04 0.00 98 1022.1
20260902231527 61 256 1.7 2.6 0.00 0.04 0.00 99 1022.1
20260902230526 61 296 1.7 1.7 0.00 0.04 0.00 99 1022.1
20260902225527 61 252 2.6 4.3 0.00 0.04 0.00 97 1022.0
20260902224140 61 221 0.9 2.6 0.00 0.04 0.00 97 1021.9
20260902223527 61 18 2.6 5.2 0.00 0.04 0.00 96 1021.9
20260902222527 61 305 1.7 7.8 0.00 0.04 0.00 97 1021.9
20260902221140 61 276 1.7 5.2 0.00 0.04 0.00 97 1021.9
20260902220526 61 310 2.6 5.2 0.00 0.04 0.04 97 1021.7
20260902215527 61 340 3.5 5.2 0.00 0.04 0.04 99 1021.6
20260902214140 61 282 2.6 5.2 0.00 0.04 0.04 98 1021.6
20260902213526 61 312 1.7 3.5 0.00 0.04 0.04 99 1021.7
20260902211141 61 315 1.7 3.5 0.00 0.05 0.04 99 1021.8
20260902210527 61 311 0.9 2.6 0.00 0.07 0.04 99 1021.6
20260902205527 61 311 2.6 3.5 0.00 0.09 0.04 100 1021.6
20260902204141 61 303 2.6 3.5 0.00 0.09 0.04 99 1021.5
20260902203526 61 313 1.7 3.5 0.02 0.09 0.04 98 1021.6
20260902202527 62 304 0.9 2.6 0.02 0.09 0.04 96 1021.4
20260902201140 62 316 2.6 3.5 0.02 0.09 0.04 96 1021.3
20260902200527 62 352 1.7 3.5 0.02 0.09 0.04 95 1021.1
20260902195527 63 296 1.7 6.1 0.02 0.09 0.04 90 1021.0
20260902194140 62 298 2.6 6.1 0.02 0.09 0.04 97 1021.1
20260902193527 63 18 0.9 3.5 0.02 0.09 0.04 93 1020.6
20260902192526 63 297 1.7 4.3 0.01 0.08 0.03 92 1020.9
20260902191140 63 321 1.7 4.3 0.00 0.07 0.02 92 1020.9
20260902190526 63 314 2.6 5.2 0.00 0.07 0.02 92 1020.5
20260902185527 63 289 1.7 3.5 0.00 0.07 0.02 90 1020.4
20260902184140 64 334 2.6 5.2 0.00 0.07 0.02 90 1020.1
20260902183527 64 308 0.9 1.7 0.00 0.07 0.02 88 1019.8
20260902182527 64 243 1.7 5.2 0.00 0.07 0.02 88 1019.7
20260902181140 65 14 1.7 5.2 0.00 0.07 0.02 87 1019.3
20260902180527 65 69 0.9 2.6 0.00 0.07 0.02 86 1019.3
20260902175527 65 301 1.7 4.3 0.00 0.07 0.02 87 1019.2
20260902174140 66 270 0.0 4.3 0.02 0.07 0.02 81 1018.8
20260902173526 66 287 3.5 7.8 0.02 0.07 0.02 78 1018.7
20260902172527 69 7 1.7 5.2 0.02 0.07 0.02 82 1018.0
20260902171140 68 133 1.7 3.5 0.02 0.07 0.02 82 1018.1
20260902170527 68 211 0.9 5.2 0.02 0.07 0.02 82 1018.1
20260902165527 67 246 2.6 7.0 0.02 0.07 0.02 84 1018.4
20260902164140 70 214 0.9 4.3 0.02 0.07 0.02 80 1017.5
20260902163527 70 268 2.6 3.5 0.00 0.05 0.00 84 1017.4
20260902162527 71 229 1.7 5.2 0.00 0.05 0.00 83 1017.7
20260902161140 72 218 0.9 4.3 0.00 0.05 0.00 77 1017.0
20260902160526 74 202 1.7 4.3 0.00 0.05 0.00 70 1016.8
20260902155527 75 197 1.7 5.2 0.00 0.05 0.00 66 1016.7
20260902154141 75 177 1.7 4.3 0.00 0.05 0.00 64 1016.7
20260902153527 76 115 2.6 5.2 0.00 0.05 0.00 59 1016.5
20260902152526 77 170 3.5 6.1 0.00 0.05 0.00 60 1016.4
20260902151140 77 171 3.5 6.1 0.00 0.05 0.00 60 1016.4
20260902150527 77 150 3.5 7.8 0.00 0.05 0.00 60 1016.4
20260902145527 77 172 3.5 7.0 0.00 0.05 0.00 59 1016.5
20260902144140 78 167 2.6 5.2 0.00 0.05 0.00 60 1016.4
20260902143526 77 161 2.6 6.1 0.00 0.05 0.00 56 1016.6
20260902142527 77 177 1.7 4.3 0.00 0.05 0.00 57 1016.9
20260902141140 77 153 1.7 5.2 0.00 0.05 0.00 54 1017.0
20260902140527 76 136 2.6 5.2 0.00 0.05 0.00 55 1017.1
20260902135527 76 150 2.6 7.0 0.00 0.05 0.00 57 1017.2
20260902134138 76 153 2.6 5.2 0.00 0.05 0.00 58 1017.2
20260902133527 76 174 1.7 5.2 0.00 0.05 0.00 59 1017.4
20260902132527 76 172 3.5 6.1 0.00 0.05 0.00 58 1017.4
20260902131140 76 183 2.6 6.1 0.00 0.05 0.00 57 1017.6
20260902130527 76 153 3.5 7.0 0.00 0.05 0.00 57 1017.7
20260902125527 76 161 3.5 7.8 0.00 0.05 0.00 57 1017.7
20260902124139 75 162 3.5 7.8 0.00 0.05 0.00 59 1017.9
20260902123527 75 162 3.5 7.8 0.00 0.05 0.00 58 1018.3
20260902122527 75 175 2.6 7.0 0.00 0.05 0.00 59 1018.4
20260902121140 75 172 3.5 9.6 0.00 0.05 0.00 59 1018.5
20260902120526 75 179 3.5 7.0 0.00 0.05 0.00 60 1018.7
20260902115526 75 174 3.5 7.8 0.00 0.05 0.00 61 1018.7
20260902114140 75 164 4.3 8.7 0.00 0.05 0.00 63 1018.9
20260902113527 74 178 2.6 6.1 0.00 0.05 0.00 59 1019.2
20260902112527 75 172 2.6 7.8 0.00 0.05 0.00 56 1019.2
20260902111140 74 181 2.6 7.0 0.00 0.05 0.00 56 1019.6
20260902110527 73 244 1.7 4.3 0.00 0.05 0.00 57 1019.9
20260902105526 73 192 0.9 5.2 0.00 0.05 0.00 56 1020.0
20260902104140 73 238 1.7 4.3 0.00 0.05 0.00 56 1020.2
20260902103527 72 256 1.7 4.3 0.00 0.05 0.00 61 1020.4
20260902102526 72 199 1.7 5.2 0.00 0.05 0.00 62 1020.5
20260902101140 72 183 1.7 4.3 0.00 0.05 0.00 65 1020.6